Weather in Zeleny

Russia / Republic of Buryatia     51°51′08″N   107°41′13″E
temp.,
°C
wind,
m/s
gust,
m/s
humid.,
%
clouds,
%
prec.,
mm/h
press.,
hPa
HPBL,
m
14 april, wed
wed1423:00+2wnw31070100 0.0 1014739
02:000nw61184100 0.1 1016943
05:00−1nw51076100 0.1 1017790
08:00−1nw3668100 0.1 1018670
11:00+1nw5746100 0.0 10191570
14:00+3nw6834100 0.0 10172484
17:00+3nw6834100 0.1 10162345
20:00−1wnw23504 0.1 1018180
15 april, thu
thu1523:00−3sw22614 0.0 101838
02:00−5sw23755 0.0 101754
05:00−6ssw228939 0.0 101638
08:00−2sw1269100 0.0 1014276
11:00+2w3642100 0.0 10111361
14:00+3wnw5663100 0.2 10121184
17:00+2nw7116297 0.6 10131395
20:00−1nw49585 0.9 1017443
16 april, fri
fri1623:00−2nw510645 0.0 1020559
02:00−4wnw41074100 0.0 1023486
05:00−5wsw238793 0.0 102489
08:00−2wsw266784 0.0 1024529
11:00+3w354192 0.0 10221158
14:00+7wnw45318 0.0 10181624
17:00+8wnw454264 0.0 10171367
20:00+3se01615 0.0 101710
17 april, sat
sat1723:00+1se116829 0.0 101710
02:000se11705 0.0 101511
05:00−1ese11695 0.0 101414
08:00+3ene01495 0.0 1013190
11:00+11w23310 0.0 1009903
14:00+15wsw46240 0.0 10051804
17:00+14nw22250 0.0 10051717
20:00+8nne11450 0.0 100513
18 april, sun
sun1823:00+5e01555 0.0 100610
02:00+3e0161100 0.0 100710
05:00+2nw127095 0.0 100826
08:00+3nw247622 0.0 1011412
11:00+5nnw476784 0.0 1012810
14:00+7nw47588 0.0 1011827
17:00+7nnw455866 0.0 1012888
20:00+3nw127430 0.0 1013141